Location: Göttingen
(51.5413°N, 9.9158°E)
Time: 17:45:46
(UTC+02:00)

BEESAT - Pass Details

Date: 03 July 2022
Orbit: 700 x 706 km, 98.6° (Epoch: 13 August)

Event Time Altitude Azimuth Distance (km) Brightness Sun altitude
Rises 23:38:50 0° 4° (N) 3,108 ? -12.0°
Reaches altitude 10° 23:41:48 10° 345° (NNW) 2,186 ? -12.2°
Maximum altitude 23:44:47 17° 306° (NW) 1,764 ? -12.4°
Drops below altitude 10° 23:47:46 10° 267° (W) 2,180 ? -12.6°
Sets 23:50:44 0° 247° (WSW) 3,095 ? -12.8°
